AirNav   Air Wisconsin pilot careers
 
 967 users online  

UT23 Jordan Valley Medical Center-West Valley Campus Heliport
West Valley City, Utah, USA

GOING TO WEST VALLEY CITY?


FAA INFORMATION EFFECTIVE 04 JANUARY 2018

Location

FAA Identifier: UT23
Lat/Long: 40-41-56.7200N / 111-59-26.4000W
40-41.945333N / 111-59.440000W
40.6990889 / -111.9906667
(estimated)
Elevation: 4251 ft. / 1296 m (estimated)
Variation: 14E (1990)
From city: 2 miles N of WEST VALLEY CITY, UT
Time zone: UTC -7 (UTC -6 during Daylight Saving Time)
Zip code: 84120

Heliport Operations

Heliport use: Private use, MEDICAL.
Activation date: 01/1992
Control tower: no
ARTCC: SALT LAKE CITY CENTER
FSS: CEDAR CITY FLIGHT SERVICE STATION
Attendance: CONTINUOUS
Wind indicator: lighted
Segmented circle: no
Lights: FOR PERIMETER LGTS CALL 801-964-3100.

Heliport Communications

WX AWOS-3 at U42 (5 nm S): 134.425 (801-562-0271)
WX ASOS at SLC (5 nm N): PHONE 801-328-3567
WX AWOS-3 at TVY (17 nm W): 119.725 (435-882-6648)

Nearby radio navigation aids

VOR radial/distance  VOR name  Freq  Var
TCHr167/9.1WASATCH VORTAC116.8016E
FFUr339/25.6FAIRFIELD VORTAC116.6016E
PVUr322/31.5PROVO VOR/DME108.4015E
OGDr157/31.9OGDEN VORTAC115.7014E

Heliport Services

Runway Information

Helipad H1

Dimensions: 80 x 80 ft. / 24 x 24 m
Surface: asphalt, in good condition
Runway edge lights: PERIMETER LGTS.
Latitude: 40-41.945333N
Longitude: 111-59.440000W
Elevation: 4251.0 ft.
Traffic pattern: leftleft

Heliport Ownership and Management from official FAA records

Ownership: Privately-owned
Owner: JORDAN VALLEY MED CTR - W VALLEY CP
3460 S. PIONEER PARKWAY
WEST VALLEY CITY, UT 84120
Phone 801-964-3100
Manager: LEWIS FICK
3460 S. PIONEER PARKWAY
WEST VALLEY CITY, UT 84120
Phone 801-964-3100

Additional Remarks

A52-H1 140 FT BLDG WITH ANT (MKD) 320 FT SW; 25 FT PLINES 528 FT N & W; 25 FT TREES 105 FT SSW; AND 80 FT BLDG 2000 FT SE OF HELIPAD.

Instrument Procedures

There are no published instrument procedures at UT23.

Some nearby airports with instrument procedures:

U42 - South Valley Regional Airport (5 nm S)
KSLC - Salt Lake City International Airport (5 nm N)
KTVY - Bolinder Field-Tooele Valley Airport (17 nm W)
KHIF - Hill Air Force Base (26 nm N)
KHCR - Heber City Municipal Airport - Russ McDonald Field (29 nm SE)
 
Loc | Ops | Rwys | IFR | FBO | Links
Com | Nav | Svcs | Stats | Notes

TAC Air
 
Area around UT23 (Jordan Valley Medical Center-West Valley Campus Heliport)
 
Road maps at: MapQuest Bing Google
 
Aerial photo
No photo
 
Sectional chart

 
Airport distance calculator
Flying to Jordan Valley Medical Center-West Valley Campus Heliport? Find the distance to fly.

From to UT23

Sunrise and sunset
Times for 17-Jan-2018
 Local
(UTC-7)
 Zulu
(UTC)
Morning civil twilight07:2014:20
Sunrise07:5014:50
Sunset17:2600:26
Evening civil twilight17:5600:56

Current date and time
Zulu (UTC)  17-Jan-2018 13:56:52
Local (UTC-7)  17-Jan-2018 06:56:52
 
METAR
KU42 
5nm S 
171335Z AUTO 00000KT 10SM CLR M02/M04 A3037 RMK AO1 T10241036
KSLC 
5nm N 
171254Z 00000KT 10SM FEW085 FEW200 00/M03 A3037 RMK AO2 SLP290 T00001028
KTVY 
17nm W 
171335Z AUTO 00000KT 10SM CLR M03/M04 A3039 RMK AO2
TAF
KSLC 
5nm N 
171144Z 1712/1818 14004KT P6SM FEW060 FEW200 FM171900 32005KT P6SM FEW200 FM180300 17004KT P6SM FEW200
NOTAMs
Click for the latest NOTAMs
NOTAMs are issued by the DoD/FAA and will open in a separate window not controlled by AirNav.

 

 
 

Would you like to see your business listed on this page?

 If your business provides an interesting product or service to pilots, flight crews, aircraft, or users of the Jordan Valley Medical Center-West Valley Campus Heliport, you should consider listing it here.  To start the listing process, click on the button below
 
Add a business
 

Other Pages about Jordan Valley Medical Center-West Valley Campus Heliport

Update a link
 
Copyright © AirNav, LLC. All rights reserved. Privacy Policy  Contact